Helicity
94 100 86 85 108 97 97 126 155 131 125 18 24 58 56 -91 -78 -44 38 -5 -51 -47 -29 21 104 122 131 135 132 107 116 104
71 74 88 88 64 77 104 153 103 96 7 -17 -73 -84 -106 -143 -139 -158 -70 -15 -61 -36 38 88 124 160 147 130 150 145 146 179
89 64 59 74 99 36 28 35 55 39 -3 -61 -81 -86 -145 -123 -168 -211 -95 -45 -33 -22 51 43 102 116 157 182 201 212 203 236
115 115 90 78 70 51 15 -1 11 10 -28 -80 -63 -97 -156 -185 -249 -256 -180 -77 -43 -26 -1 30 99 139 179 206 236 277 296 249
141 120 112 104 56 21 2 -26 -36 -16 -56 -107 -142 -145 -154 -200 -203 -178 -137 -66 -28 6 41 66 105 148 165 206 238 275 318 409
319 174 102 124 81 63 12 -27 -56 -61 -61 -84 -123 -154 -187 -190 -198 -147 -107 -82 -15 50 72 116 119 143 161 225 278 353 366 449
341 273 174 124 91 49 42 35 -30 -63 -36 -53 -48 -37 -47 -101 -124 -70 -54 -54 -37 34 85 138 163 189 218 272 316 393 430 426
322 246 240 184 197 168 119 134 95 37 28 9 17 27 18 3 -28 -23 -2 0 36 108 167 169 134 187 255 340 384 405 403 387
358 345 332 282 254 224 193 189 151 148 135 93 59 40 21 -21 -26 20 70 81 111 239 222 178 192 202 264 391 449 427 411 370
299 307 354 348 297 270 288 251 227 216 204 153 124 109 116 88 71 138 214 178 148 272 222 254 204 274 290 445 491 413 417 390
250 262 291 315 335 346 334 291 300 303 239 178 134 116 136 145 174 219 259 283 282 197 133 209 223 220 372 464 428 391 401 382
245 305 299 332 288 331 368 327 298 263 294 242 317 242 204 260 306 325 368 415 305 22 80 173 204 279 321 347 373 372 363 350
170 285 318 326 308 283 330 399 383 362 393 283 292 290 383 435 339 352 488 287 261 80 105 145 222 329 323 295 335 320 330 332
128 154 179 231 193 210 316 404 469 486 568 566 471 298 315 357 379 344 430 322 204 204 210 252 250 255 291 305 316 303 295 305
142 162 179 180 163 153 173 267 322 419 494 525 372 279 262 176 218 370 338 291 300 253 248 262 274 303 288 302 298 263 275 277
162 150 191 211 183 188 166 186 210 346 411 345 249 174 166 170 356 412 328 264 263 281 330 332 312 310 302 293 264 286 296 269
170 129 212 303 292 305 323 304 282 320 295 236 250 249 291 324 317 349 339 340 354 349 332 336 337 314 276 264 262 260 272 280
155 201 238 346 394 402 383 438 443 408 336 370 389 399 378 397 394 401 368 347 324 299 308 317 325 295 247 249 285 315 319 309
187 226 323 348 485 513 504 523 443 481 459 454 445 439 444 415 370 328 339 290 293 296 309 297 301 281 290 339 407 386 373 354
Wind_Speed
39 42 44 46 51 56 60 59 64 61 61 63 78 78 76 75 74 76 71 69 69 68 58 28 10 11 11 15 12 21 18 14
38 41 44 47 52 57 63 66 68 67 72 74 71 73 72 75 77 79 73 69 71 65 12 30 24 8 7 5 17 21 27 19
35 41 44 46 51 55 60 63 65 66 69 71 70 66 68 72 81 81 74 70 68 54 13 24 11 15 10 7 18 27 28 16
34 41 46 51 55 58 60 63 66 69 69 72 69 65 69 69 73 72 71 69 69 53 44 27 16 14 13 13 13 16 21 23
38 41 46 53 57 59 60 63 64 64 65 64 63 58 62 68 64 61 59 57 51 48 35 27 20 18 16 13 12 18 19 25
43 47 49 50 49 52 53 54 58 59 58 59 58 61 60 59 57 55 54 48 45 38 29 19 23 25 21 15 16 11 11 16
46 46 40 45 47 48 50 53 56 54 55 55 58 59 53 47 47 43 40 46 41 34 26 22 23 23 21 16 23 17 14 17
43 43 41 40 47 49 49 52 53 50 47 51 56 53 48 47 45 40 34 41 37 29 26 27 28 23 22 18 18 17 16 18
41 46 42 40 44 48 49 48 47 49 51 53 53 52 42 43 45 33 31 32 26 23 29 27 23 21 19 19 17 18 18 23
43 42 40 37 41 49 49 46 47 49 54 49 49 44 48 40 41 33 31 31 29 23 21 25 21 22 22 18 20 20 21 25
35 38 41 42 43 44 45 49 51 53 48 43 42 43 38 42 35 35 34 36 37 28 29 22 25 16 17 19 21 22 24 27
31 30 35 42 40 39 42 45 48 44 39 38 37 38 39 44 43 38 45 36 46 47 36 26 20 22 16 17 20 21 25 26
23 21 27 29 39 37 38 41 40 45 42 33 36 41 40 37 47 52 22 48 35 31 11 11 14 15 13 16 21 25 25 24
5 5 14 20 26 33 34 35 42 41 26 26 26 24 31 31 19 19 13 16 34 16 12 12 11 13 17 20 21 21 20 21
7 5 7 4 5 9 22 29 34 24 26 25 29 24 17 21 19 18 17 16 17 15 13 12 14 16 15 16 18 19 20 21
18 15 10 3 1 8 11 15 19 18 22 24 30 23 17 16 13 8 7 11 11 11 14 18 16 14 16 18 18 19 20 22
20 18 25 21 17 20 20 15 16 17 17 19 19 16 12 10 8 5 2 5 11 15 17 16 17 20 17 15 17 19 20 19
24 26 22 17 16 16 18 19 17 14 12 12 12 10 9 6 4 7 10 13 15 19 21 20 19 19 14 15 18 19 20 22
31 25 24 14 12 15 16 20 16 12 10 9 7 5 5 5 6 8 10 13 16 17 18 18 18 19 14 15 18 21 24 29
Wind_Direction
123 122 126 131 140 146 149 146 151 150 151 159 184 194 182 176 174 178 198 200 193 188 181 164 268 267 277 279 284 296 310 322
128 128 131 133 145 151 151 154 157 153 161 164 164 170 172 180 183 178 190 202 197 190 175 268 266 211 199 212 294 301 304 316
128 139 141 141 144 150 152 155 156 156 158 163 165 162 171 182 188 192 203 202 194 189 191 168 196 183 206 250 294 301 308 308
139 145 152 154 156 153 152 153 155 160 160 166 174 166 176 177 178 187 195 201 197 183 182 178 200 208 231 258 275 297 304 309
153 152 155 160 163 161 158 159 160 159 161 162 164 157 160 173 178 182 188 188 185 187 187 193 208 208 217 250 275 293 307 309
164 166 165 163 157 159 159 159 162 163 161 165 166 170 175 179 185 188 192 190 192 191 193 231 216 204 211 243 274 270 281 317
173 170 162 165 164 164 164 166 169 169 169 171 175 179 181 183 187 191 194 197 196 200 209 227 222 226 227 232 279 267 275 303
177 173 170 167 170 172 173 175 177 177 178 181 185 188 189 193 194 195 197 197 200 214 231 260 213 232 230 236 262 262 267 285
182 181 179 177 178 178 180 182 185 186 189 192 193 196 198 201 204 210 212 212 226 241 243 258 259 256 250 236 252 265 280 292
186 186 186 186 184 186 188 190 194 197 199 201 202 206 206 211 213 224 242 230 224 252 235 264 270 273 262 242 268 274 288 295
193 192 191 189 190 191 194 196 199 203 205 209 217 219 224 220 234 243 261 269 273 279 288 277 281 252 267 265 281 286 291 299
194 196 199 199 201 200 201 205 211 215 216 220 223 238 247 266 268 270 275 268 276 288 292 290 281 281 267 261 278 287 294 298
200 212 213 219 214 214 212 215 219 223 228 256 276 286 281 273 277 275 279 266 285 291 250 253 269 267 260 269 285 294 295 298
291 213 216 223 218 219 221 222 222 221 253 253 262 267 283 245 237 250 261 229 218 262 260 265 280 277 285 294 300 303 302 300
249 240 181 177 251 234 213 217 221 231 224 234 226 232 235 231 260 257 249 245 247 245 265 283 294 299 301 305 308 309 311 310
262 213 255 224 219 319 300 240 232 234 222 230 223 248 263 283 284 259 255 260 262 277 288 302 307 304 308 311 312 313 314 315
259 226 273 283 291 302 319 307 291 272 258 262 270 263 258 263 271 258 267 291 301 300 302 305 305 309 311 314 318 316 321 320
252 235 252 261 280 297 313 319 317 303 275 280 282 264 257 254 278 308 306 311 318 317 315 313 312 316 316 321 325 327 327 327
266 235 249 231 278 298 317 323 311 312 302 281 270 242 252 274 287 299 316 320 321 321 321 320 321 325 332 339 342 340 336 332